Date,TemperatureHighF,TemperatureAvgF,TemperatureLowF,DewpointHighF,DewpointAvgF,DewpointLowF,HumidityHigh,HumidityAvg,HumidityLow,PressureMaxIn,PressureMinIn,WindSpeedMaxMPH,WindSpeedAvgMPH,GustSpeedMaxMPH,PrecipitationSumIn
2013-11-1,72.2,58.8,44.0,59.7,49.9,42.0,95,73,52,29.68,29.32,47,4,48,0.13
2013-11-2,50.4,46.7,44.8,46.9,43.7,40.9,95,89,83,29.96,29.63,8,1,11,0.02
2013-11-3,49.6,41.2,27.9,42.0,34.9,26.3,95,79,54,30.45,29.96,13,1,13,0.00
2013-11-4,48.7,36.4,22.8,32.9,27.8,21.3,100,74,43,30.55,30.42,7,0,7,0.00
2013-11-5,59.9,45.4,33.3,39.8,34.0,30.3,93,67,39,30.51,30.33,7,0,8,0.00
2013-11-6,73.7,55.4,31.1,56.6,44.9,29.2,97,71,48,30.33,29.91,20,1,20,0.00
2013-11-7,60.6,46.8,38.6,57.4,40.8,27.8,96,80,58,30.14,29.85,21,4,21,0.48
2013-11-8,44.9,36.7,25.2,33.1,28.9,23.7,94,74,54,30.32,30.10,18,3,18,0.00
2013-11-9,58.2,26.2,23.5,35.2,23.7,22.3,98,92,30,30.31,30.00,5,0,18,0.00
2013-11-10,53.5,43.3,32.0,37.1,31.6,26.8,81,63,43,30.28,30.00,29,8,29,0.00
2013-11-11,51.3,39.8,26.0,41.6,31.7,23.6,95,75,39,30.30,30.05,20,1,20,0.04
2013-11-12,40.0,30.6,25.0,37.9,26.4,20.4,95,85,62,30.51,30.08,16,3,17,0.18
2013-11-13,36.6,28.4,19.4,25.3,21.6,17.2,92,76,57,30.57,30.42,15,2,15,0.02
2013-11-14,50.6,37.6,26.4,28.4,23.4,20.9,81,59,33,30.42,30.19,15,1,15,0.00
2013-11-15,57.1,43.2,27.3,41.3,28.8,22.4,83,60,29,30.25,30.13,17,1,18,0.01
2013-11-16,63.8,51.7,35.1,52.7,45.8,33.8,98,81,65,30.24,30.01,11,0,11,0.00
2013-11-17,63.6,58.9,52.7,60.4,54.1,41.8,93,84,55,30.01,29.52,30,2,30,0.42
2013-11-18,57.9,49.7,39.6,44.3,35.7,26.6,74,59,46,30.06,29.65,29,9,30,0.00
2013-11-19,39.6,35.5,25.8,30.0,26.9,22.4,89,71,61,30.40,30.05,16,2,19,0.00
2013-11-20,49.4,35.6,22.0,29.1,20.3,14.5,100,60,25,30.48,30.35,14,2,16,0.00
2013-11-21,58.7,44.2,24.3,44.4,33.8,19.9,91,68,48,30.44,30.22,9,0,9,0.00
2013-11-22,54.6,50.6,37.9,54.0,48.3,34.4,100,92,76,30.22,30.04,21,2,21,0.27
2013-11-23,38.2,32.1,20.3,34.4,25.5,13.8,92,77,56,30.37,30.14,24,6,24,0.00
2013-11-24,24.0,18.9,10.9,17.7,11.1,6.8,91,72,58,30.58,30.37,22,6,22,0.00
2013-11-25,37.8,25.7,10.1,28.3,13.2,8.0,93,63,33,30.56,30.25,16,1,18,0.00
2013-11-26,35.6,33.5,31.5,33.9,31.8,27.0,98,94,71,30.25,29.72,13,1,18,1.18
2013-11-27,33.4,29.0,24.2,32.4,25.4,15.8,100,86,69,30.18,29.73,24,7,24,0.04
2013-11-28,31.8,25.4,15.3,22.9,19.0,12.1,91,77,63,30.46,30.18,15,2,15,0.01
2013-11-29,38.6,29.6,20.6,26.2,22.7,18.4,91,76,55,30.66,30.45,10,0,10,0.02
2013-11-30,43.6,27.8,16.3,29.1,22.7,14.6,100,82,55,30.62,30.24,9,0,9,0.00